www.pogodaiklimat.ru

Погода и климат >> Архив погоды >> Мьянма >> Кяокпю


ПОГОДА в Кяокпю

  • Прогноз погоды в Кяокпю
  • Монитор погоды в Кяокпю

АРХИВ ПОГОДЫ в Кяокпю

Время (UTC), дата Ветер
(напр.,м/с)
 
Видим.   Явления Облачность Т
(С)
Тd
(С)
f
(%)
Тe
(С)
Тes
(С)
Комфортность P
(гПа)
Po
(гПа)
Тmin
(С)
Tmax
(С)
R
(мм)
R24
(мм)
S
(см)
00 15.05 штиль 0 6000 м 4/4 300 м
[Cu Sc]
+29.4 +25.9 81 +44 +44 опасность
перегрева
1008.1 1007.5 +27.5
03 15.05 СЗ 5 8000 м 5/5 300 м
[Cu Sc]
+32.2 +26.5 72 +49 +53 опасность
перегрева
1010.8 1010.2
06 15.05 СЗ 7 10 км 1/1 300 м
[Cu med, cong]
+34.0 +25.7 62 +49 +55 опасность
перегрева
1010.1 1009.5
09 15.05 СЗ 7 10 км 5/5 300 м
[Cu Sc]
+33.7 +25.7 63 +49 +50 опасность
перегрева
1007.2 1006.6
12 15.05 СЗ 3 6000 м 3/3 300 м
[Cu Sc]
+30.7 +25.4 73 +45 +45 опасность
перегрева
1007.6 1007.0 +34.5
00 16.05 штиль 0 5000 м 6/6 300 м
[Cb cap]
+28.8 +25.9 84 +43 +43 опасность
перегрева
1009.3 1008.7 +27.5
03 16.05 штиль 0 8000 м 6/5 300 м
[Cu Sc Ac trans]
+31.7 +26.5 74 +48 +56 опасность
перегрева
1011.3 1010.7
06 16.05 СЗ 5 10 км ясно +34.0 +25.7 62 +49 +61 опасность
перегрева
1010.9 1010.3
09 16.05 З 7 10 км 4/4 300 м
[Cu Sc]
+33.6 +25.7 63 +48 +50 опасность
перегрева
1007.9 1007.3
12 16.05 СЗ 7 6000 м 4/4 300 м
[Cu Sc]
+31.5 +24.8 68 +45 +45 опасность
перегрева
1008.1 1007.5 +34.5
00 17.05 З 2 5000 м 8/5 300 м
[Cu Sc Ac As]
+29.4 +25.9 81 +44 +44 опасность
перегрева
1008.4 1007.8 +28.0
03 17.05 З 3 8000 м 8/5 300 м
[Cu Sc Ac As]
+32.4 +24.8 64 +45 +49 опасность
перегрева
1010.0 1009.4
06 17.05 СЗ 4 10 км 5/5 300 м
[Cu Sc]
+34.0 +25.7 62 +49 +57 опасность
перегрева
1009.6 1009.0
09 17.05 СЗ 10 10 км ясно +33.8 +25.7 63 +49 +50 опасность
перегрева
1007.4 1006.8
12 17.05 З 9 7000 м ясно +31.8 +24.8 67 +45 +45 опасность
перегрева
1006.4 1005.8 +34.6
00 18.05 СЗ 5 6000 м 3/3 300 м
[Cu Sc]
+29.0 +25.9 83 +43 +43 опасность
перегрева
1007.3 1006.7 +27.5
03 18.05 СЗ 5 8000 м 4/4 300 м
[Cu Sc]
+33.0 +25.8 66 +48 +53 опасность
перегрева
1009.9 1009.3
06 18.05 СЗ 7 10 км 3/3 300 м
[Cu Sc]
+33.7 +25.7 63 +49 +53 опасность
перегрева
1009.7 1009.1
09 18.05 СЗ 8 10 км 1/1 300 м
[Cu med, cong]
+33.8 +25.7 63 +49 +51 опасность
перегрева
1006.9 1006.3
12 18.05 СЗ 7 6000 м 1/1 300 м
[Sc]
+31.3 +25.4 71 +46 +46 опасность
перегрева
1007.2 1006.6 +34.5
00 19.05 штиль 0 5000 м 6/6 300 м
[Cu Sc]
+28.6 +25.9 85 +43 +43 опасность
перегрева
1008.4 1007.8 +27.3
03 19.05 СЗ 3 8000 м 8/6 300 м
[Cu Sc Ac trans]
+31.3 +25.4 71 +46 +49 опасность
перегрева
1010.3 1009.7
06 19.05 СЗ 5 10 км 5/5 300 м
[Cu Sc]
+34.0 +24.0 56 +46 +52 опасность
перегрева
1010.4 1009.8
09 19.05 СЗ 7 12 км ясно +33.8 +25.7 63 +49 +52 опасность
перегрева
1007.9 1007.3
12 19.05 СЗ 7 6000 м 8/5 300 м
[Cu Sc]
+31.7 +26.5 74 +48 +48 опасность
перегрева
1008.1 1007.5 +35.0
00 20.05 СЗ 1 5000 м 9/5 300 м
[Cu Sc Ac As]
+30.0 +26.6 82 +46 +47 опасность
перегрева
1008.3 1007.7 +29.0
03 20.05 СЗ 2 9000 м 6/4 300 м
[Cu Sc Ac As]
+32.8 +27.0 72 +51 +57 опасность
перегрева
1010.0 1009.4
06 20.05 СЗ 4 10 км 4/4 300 м
[Cu Sc]
+34.4 +27.0 65 +52 +61 опасность
перегрева
1009.8 1009.2
09 20.05 СЗ 5 10 км 3/3 300 м
[Cu med, cong]
+34.0 +27.0 67 +52 +56 опасность
перегрева
1006.8 1006.2
12 20.05 СЗ 5 6000 м 4/4 300 м
[Cu Sc]
+32.3 +26.5 72 +49 +49 опасность
перегрева
1006.9 1006.3 +35.0
00 21.05 СЗ 5 6000 м 6/6 300 м
[Cu Sc]
+30.3 +26.6 81 +47 +47 опасность
перегрева
1008.8 1008.2 +28.0
03 21.05 СЗ 3 8000 м 4/4 300 м
[Cu Sc]
+32.8 +27.5 74 +52 +59 опасность
перегрева
1010.1 1009.5
06 21.05 СЗ 6 10 км 3/3 300 м
[Cu Sc]
+34.3 +27.0 66 +52 +59 опасность
перегрева
1009.7 1009.1
09 21.05 СЗ 7 10 км 5/5 300 м
[Cu Sc]
+34.0 +27.0 67 +52 +54 опасность
перегрева
1007.0 1006.4
12 21.05 З 7 7000 м 5/5 300 м
[Cu Sc]
+32.0 +26.5 73 +49 +49 опасность
перегрева
1006.5 1005.9 +35.0

 

Местоположение метеостанции Кяокпю (Мьянма): широта 19.42 долгота 93.55 высота над уровнем моря 5 м.

В архиве по умолчанию представлена погода в Кяокпю за последнюю неделю. Архивные данные за месяц целиком и за предыдущие месяцы, начиная с января 2011 года, Вы можете получить, выбрав интересующий диапазон дат из раскрывающегося списка и нажав кнопку "Ввод!".


*Определитесь, кто Вы:
робот инопланетянин человек

Внимание! Время в таблицах - всемирное. Для получения местного времени необходимо прибавить поправку, которая равна 6.5 ч.

Смотрите также архив погоды в соседних городах и на ближайших метеорологических станциях:

Погода в Манаунге (Мьянма) (66 км)
Погода в Ситтво (Мьянма) (106 км)
Погода в Тандве (Мьянма) (135 км)
Погода в Минбу (Мьянма) (162 км)
Погода в Магуэе (Мьянма) (168 км)
Погода в Кяуктаве (Мьянма) (186 км)
Погода в Проме (Мьянма) (189 км)
Погода в Текнафе (Бангладеш) (207 км)
Погода в Чау (Мьянма) (210 км)
Погода в Миндате (Мьянма) (222 км)

Пояснения к столбцам:

Ветер - указаны скорость ветра в м/с - средняя за 10 мин, порывы в срок и между сроками (в фигурных скобках) и направление, откуда дует ветер: С - северный, СВ - северо-восточный, В - восточный, ЮВ - юго-восточный, Ю - южный, ЮЗ - юго-западный, З - западный, СЗ - северо-западный.
Видимость - горизонтальная дальность видимости в метрах или километрах. При видимости от 1 до 10 км при отсутствии осадков обычно наблюдается дымка, при ухудшении видимости до 1 км и менее - туман. В сухую погоду видимость может ухудшаться дымом, пылью или мглою.
Явления - указаны атмосферные явления, наблюдавшиеся в срок или в последний час перед сроком; фигурными скобками обозначены явления, наблюдавшиеся между сроками (за 1-3 часа до срока); квадратными скобками обозначены град или гололедные отложения с указанием их диаметра в мм.
Облачность - указаны через наклонную черту общая и нижняя облачность в баллах и высота нижней границы облаков в метрах; квадратными скобками обозначены формы облаков: Ci - перистые, Cs - перисто-слоистые, Cc - перисто-кучевые, Ac - высококучевые, As - высокослоистые, Sc - слоисто-кучевые, Ns - слоисто-дождевые, Cu - кучевые, Cb - кучево-дождевые. Подробнее классификацию облаков см. в Атласе облаков (PDF).
T - Температура воздуха - температура, измеренная на высоте 2 м над землей.
Td - Температура точки росы - температура, при понижении до которой содержащийся в воздухе водяной пар достигнет насыщения.
f - Относительная влажность воздуха - влажноcть воздуха, измеренная на высоте 2 м над землей.
Te - Эффективная температура - температура, которую ощущает одетый по сезону человек в тени. Характеристика душности погоды. При расчете учитывается влияние влажности воздуха и скорости ветра на теплоощущения человека.
Tes - Эффективная температура на солнце - температура, которую ощущает человек, с поправкой на солнечный нагрев. Характеристика знойности погоды. Зависит от высоты солнца над горизонтом, облачности и скорости ветра. Ночью, в пасмурную погоду, а также при ветре 12 м/с и более поправка равна нулю.
P - Атмосферное давление - приведенное к уровню моря атмосферное давление.
Po - Атмосферное давление - измеренное на уровне метеостанции атмосферное давление.
Tmin - Минимальная температура - минимум температуры воздуха на высоте 2 м над землей.
Tmax - Максимальная температура - максимум температуры воздуха на высоте 2 м над землей.
R - Количество осадков - Количество выпавших осадков за период времени, мм. При наведении курсора мыши на число - период времени, за который выпало указанное количество осадков.
R24 - Количество осадков - Количество выпавших осадков за 24 часа, мм.
S - Снежный покров - Высота снежного покрова, см. При наведении курсора мыши на число - состояние снежного покрова и степень покрытия местности в баллах.